Starlink 5666

operational
NORAD ID: 55349 Int'l Des: 2023-013 Owner: SPXS Country: US Constellation: starlink
LEOCIRCULAR

Über Starlink 5666

Beschreibung wird geladen...

Live-Position

3D-Globus wird geladen...

Nächste Überflüge

Höhenverlauf

Altitude vs Time

uPlot chart will show altitude changes over time

Zweizeiliger Elementsatz

1 55349U 23013U 26033.28209760 .00001282 00000-0 10997-3 0 9995
2 55349 43.0040 132.6877 0001359 264.2549 95.8138 15.02537143166382
Epoch: 2. Feb. 2026 • Age: 21 hours

Aktueller Status

Höhe 565.0 km
Geschwindigkeit 7.58 km/s
Subsatellitenpunkt -26.03°S, 86.7°W
Startdatum 26. Jan. 2023
Alter 3 years
Typ internet

Technische Details

Klassifizierung Payload
Masse 305.00 kg
Trockenmasse 290.00 kg
Gesamtmasse 305.00 kg
Länge 0.20 m
Durchmesser 2.80 m
Spannweite 9.00 m
Form Box + pan
Hersteller SPXS
Bus-Typ Starlink
Phasenstatus In Orbit
Besitzer/Staat SPXS/US

Große Konstellationen

Loading constellations...